Regional Weather Roundup
Issued by NWS

Home | Current Version | Previous Version | Graphics & Text | Print | Product List | Glossary Off
Versions: 1 2 3 4 5 6 7 8 9 10 11 12 13 14 15 16 17 18 19 20 21 22 23 24 25 26 27 28 29 30 31 32 33 34 35 36 37 38 39 40 41 42 43 44 45 46 47 48 49 50

000
ASUS43 KDTX 301801
RWRMI
MICHIGAN HOURLY REGIONAL WEATHER ROUNDUP
NATIONAL WEATHER SERVICE DETROIT/PONTIAC MI
200 PM EDT TUE JUN 30 2015

NOTE: "FAIR" INDICATES FEW OR NO CLOUDS BELOW 12,000 FEET WITH NO
SIGNIFICANT WEATHER AND/OR OBSTRUCTION TO VISIBILITY.

MIZ047>049-052>055-059>063-066>070-074>076-081>083-301900-
SOUTHEAST LOWER MICHIGAN

CITY           SKY/WX    TMP DP  RH WIND       PRES   REMARKS
ADRIAN         CLOUDY    70  62  76 W7        29.80F
6HR MIN TEMP:  63; 6HR MAX TEMP:  70;

ALMA           PTSUNNY   71  61  70 S6        29.79F
ANN ARBOR      CLOUDY    70  61  73 SW8       29.78F
BAD AXE        CLOUDY    66  58  75 E9        29.81F
6HR MIN TEMP:  60; 6HR MAX TEMP:  67;

CARO           CLOUDY    68  58  70 NE5       29.79S
DETROIT CITY   PTSUNNY   71  59  65 SW3       29.77F
6HR MIN TEMP:  63; 6HR MAX TEMP:  73;

DETROIT        CLOUDY    74  60  61 VRB6      29.78F
6HR MIN TEMP:  64; 6HR MAX TEMP:  74;

FLINT          CLOUDY    74  58  57 VRB3      29.78F
6HR MIN TEMP:  65; 6HR MAX TEMP:  75;

GROSSE ILE     PTSUNNY   70  63  78 S6        29.77F
HILLSDALE      CLOUDY    70  65  85 SW6       29.81F
6HR MIN TEMP:  62; 6HR MAX TEMP:  70;

HOWELL         LGT RAIN  71  60  69 W8        29.79F

CITY           SKY/WX    TMP DP  RH WIND       PRES   REMARKS
JACKSON        CLOUDY    69  62  78 SW5       29.79F
6HR MIN TEMP:  63; 6HR MAX TEMP:  70; 6HR PCP: TRACE;

LAMBERTVILLE   CLOUDY    73  62  68 SW6       29.80F
6HR MIN TEMP:  65; 6HR MAX TEMP:  74;

LANSING        LGT RAIN  67  61  81 SW6       29.80S
6HR MIN TEMP:  64; 6HR MAX TEMP:  70; 6HR PCP: TRACE;

LAPEER         CLOUDY    72  58  61 N3        29.79F
MASON          CLOUDY    68  60  76 SW6       29.79F
MONROE           N/A    N/A N/A N/A MISG        N/A
MT. CLEMENS    PTSUNNY   68  62  81 E7        29.77F
6HR MIN TEMP:  64; 6HR MAX TEMP:  69;

PONTIAC        PTSUNNY   73  60  63 SW8       29.77F
6HR MIN TEMP:  63; 6HR MAX TEMP:  73;

PORT HOPE        N/A     63  55  75 E5        29.81S
6HR MIN TEMP:  61; 6HR MAX TEMP:  66;

PORT HURON     CLOUDY    68  61  77 S5        29.79S
TRI CITIES     CLOUDY    73  59  61 E7        29.79F
6HR MIN TEMP:  63; 6HR MAX TEMP:  73;

MIDLAND        CLOUDY    70  58  66 CALM      29.79S
TROY           CLOUDY    73  61  67 CALM      29.79F
SAGINAW HB     CLOUDY    70  59  68 NE6       29.79S
$$
MIZ043>046-050>051-056>058-064>065-071>073-077>080-301900-
SOUTHWEST LOWER MICHIGAN

CITY           SKY/WX    TMP DP  RH WIND       PRES   REMARKS
BATTLE CREEK   CLOUDY    71  63  75 W6        29.79F
6HR MIN TEMP:  64; 6HR MAX TEMP:  72; 6HR PCP: TRACE;

BENTON HARBOR  CLOUDY    65  59  81 VRB7      29.82S HAZE
6HR MIN TEMP:  63; 6HR MAX TEMP:  67;

BIG RAPIDS     LGT RAIN  65  59  80 CALM      29.79F
6HR MIN TEMP:  59; 6HR MAX TEMP:  66; 6HR PCP:  0.07;

COLDWATER      CLOUDY    69  63  79 SW7       29.80F
6HR MIN TEMP:  62; 6HR MAX TEMP:  70;

FREMONT        CLOUDY    64  62  96 E3        29.79R FOG
HOLLAND        CLOUDY    67  60  78 W9        29.80S
6HR MIN TEMP:  62; 6HR MAX TEMP:  68;

GRAND RAPIDS   CLOUDY    66  64  93 CALM      29.78F FOG
6HR MIN TEMP:  61; 6HR MAX TEMP:  66; 6HR PCP:  0.22;

IONIA          HVY RAIN  64  63  94 S6        29.79S VSB 1
KALAMAZOO      PTSUNNY   73  62  68 S8        29.79F
6HR MIN TEMP:  63; 6HR MAX TEMP:  73; 6HR PCP: TRACE;

LUDINGTON      DRIZZLE   66  62  89 NW7       29.80S
6HR MIN TEMP:  61; 6HR MAX TEMP:  66; 6HR PCP:  0.01;

MARSHALL       CLOUDY    71  63  74 SW7       29.79S
MOUNT PLEASANT PTSUNNY   70  58  67 CALM      29.78F
6HR MIN TEMP:  59; 6HR MAX TEMP:  71;

MUSKEGON       CLOUDY    67  61  81 W9        29.79S HAZE
6HR MIN TEMP:  62; 6HR MAX TEMP:  69; 6HR PCP:  0.17;

SOUTH HAVEN    CLOUDY    64  59  85 NW8       29.82R HAZE
$$
MIZ016>042-301900-
NORTHERN LOWER MICHIGAN

CITY           SKY/WX    TMP DP  RH WIND       PRES   REMARKS
ALPENA         LGT RAIN  64  60  87 SE3       29.82R FOG
6HR MIN TEMP:  63; 6HR MAX TEMP:  74; 6HR PCP:  0.03;

BEAVER ISLAND  CLOUDY    57  54  90 NW7       29.83S
6HR MIN TEMP:  57; 6HR MAX TEMP:  63;

BELLAIRE       CLOUDY    70  58  66 W5        29.79F
6HR MIN TEMP:  65; 6HR MAX TEMP:  70;

CADILLAC       CLOUDY    68  58  71 SE5       29.80F
CHARLEVOIX     CLOUDY    62  60  93 NW7       29.84S FOG
FRANKFORT      CLOUDY    62  54  74 N9        29.82S
GAYLORD        CLOUDY    68  57  68 S6        29.81S
6HR MIN TEMP:  61; 6HR MAX TEMP:  69; 6HR PCP: TRACE;

GRAYLING       CLOUDY    66  60  83 NE5       29.81F
HARBOR SPRINGS RAIN      64  62  96 SW3       29.81S
HOUGHTON LAKE  CLOUDY    66  58  75 S5        29.81S
6HR MIN TEMP:  58; 6HR MAX TEMP:  67; 6HR PCP:  0.01;

MANISTEE       MOSUNNY   64  59  82 NW12      29.81F
OSCODA         CLOUDY    67  58  71 CALM      29.81F
PELLSTON       HVY RAIN  64  62  93 CALM      29.81R VSB 1
6HR MIN TEMP:  62; 6HR MAX TEMP:  74; 6HR PCP:  0.26;

ROGERS CITY    LGT RAIN  66  62  88 E5        29.81S
TRAVERSE CITY  CLOUDY    71  60  68 N7        29.77F
6HR MIN TEMP:  62; 6HR MAX TEMP:  72; 6HR PCP: TRACE;

$$
MIZ007>008-015-301900-
EASTERN UPPER MICHIGAN

CITY           SKY/WX    TMP DP  RH WIND       PRES   REMARKS
KINROSS        CLOUDY    63  61  94 N7        29.79F THUNDER
6HR MIN TEMP:  61; 6HR MAX TEMP:  72;

MACKINAC ISLAN CLOUDY    68  58  69 SW5       29.80R
6HR MIN TEMP:  64; 6HR MAX TEMP:  70;

NEWBERRY       CLOUDY    58  57  98 W7        29.82S FOG
6HR MIN TEMP:  57; 6HR MAX TEMP:  61; 6HR PCP:  0.08;

S. S. MARIE    TSTM      62  58  86 W12       29.81R VSB 1/2
6HR MIN TEMP:  61; 6HR MAX TEMP:  72; 6HR PCP:  0.20;

MUNISING         N/A     46  43  89 NW15G23   29.90R
6HR MIN TEMP:  46; 6HR MAX TEMP:  48; 6HR PCP:  0.32;

$$
MIZ004>006-011>014-085-301900-
CENTRAL UPPER MICHIGAN

CITY           SKY/WX    TMP DP  RH WIND       PRES   REMARKS
MANISTIQUE     LGT RAIN  50  49  94 N12       29.84R
ESCANABA       CLOUDY    59  48  67 NW13G18   29.86R
6HR MIN TEMP:  52; 6HR MAX TEMP:  61;

MENOMINEE      CLOUDY    64  54  68 N7        29.85R
6HR MIN TEMP:  57; 6HR MAX TEMP:  64;

SAWYER-GWINN   CLOUDY    48  45  87 N16       29.92R
$$
MIZ001>003-009>011-084-301900-
WESTERN UPPER MICHIGAN

CITY           SKY/WX    TMP DP  RH WIND       PRES   REMARKS
IRON MOUNTAIN  CLOUDY    59  50  72 NW14G23   29.89R
6HR MIN TEMP:  53; 6HR MAX TEMP:  61;

HOUGHTON       CLOUDY    52  42  69 NE13G21   29.97S
6HR MIN TEMP:  48; 6HR MAX TEMP:  52;

COPPER HARBOR    N/A     46  41  82 N10       29.96S
6HR MIN TEMP:  45; 6HR MAX TEMP:  46;

IRONWOOD       CLOUDY    54  48  82 NW12      29.96S
6HR MIN TEMP:  50; 6HR MAX TEMP:  54;

$$

ABBREVIATIONS USED IN REMARKS
   TC - TEMPERATURE IN CELSIUS
  WCI - WIND CHILL INDEX
   HX - HEAT INDEX
  VSB - VISIBILITY



USA.gov is the U.S. government's official web portal to all federal, state and local government web resources and services.